GSAT0202 (GALILEO 6)

Last updated on Fri Oct 31 2025 00:02:33 GMT+0000 (Coordinated Universal Time)

1 40129U 14050B 25302.98714084 -.00000019 00000+0 00000+0 0 9998 2 40129 49.1430 281.9285 1644397 171.3771 191.8567 1.85520259 76215
UTC large
Height (km)
Speed (km/s)
/
Latitude / Longitude
Inclination (degrees)
Orbital Period (minutes)
Azimuth
Elevation
Range (km)
Doppler Factor

Next 0 passes for location: London (51.5072 / 0.1276)

Sorry there are no passes over London.